AirNav   Everest Fuels
 
 590 users online  

21PN UPMC Carlisle Heliport
Carlisle, Pennsylvania, USA

GOING TO CARLISLE?


FAA INFORMATION EFFECTIVE 16 JULY 2020

Location

FAA Identifier: 21PN
Lat/Long: 40-10-59.9900N 077-13-22.1100W
40-10.999833N 077-13.368500W
40.1833306,-77.2228083
(estimated)
Elevation: 1115 ft. / 340 m (estimated)
From city: 1 mile SW of CARLISLE, PA
Time zone: UTC -4 (UTC -5 during Standard Time)
Zip code: 17015

Heliport Operations

Heliport use: Private use. Permission required prior to landing
Activation date: 11/2008
Control tower: no
ARTCC: NEW YORK CENTER
FSS: WILLIAMSPORT FLIGHT SERVICE STATION
Attendance: UNATNDD
Wind indicator: yes
Segmented circle: no

Heliport Communications

WX ASOS at CXY (17 nm E): PHONE 717-770-0880

Nearby radio navigation aids

VOR radial/distance  VOR name  Freq  Var
HARr235/10.0HARRISBURG VORTAC112.5010W
RAVr243/36.1RAVINE VORTAC114.6011W
THSr073/36.7ST THOMAS VORTAC115.0007W
SEGr211/39.6SELINSGROVE VOR/DME110.4008W

 
NDB name  Hdg/Dist  Freq  Var  ID
LATLE283/10.021911WCX -.-. -..-
BELLGROVE254/34.232810WBZJ -... --.. .---

Heliport Services

Runway Information

Helipad H1

Dimensions: 40 x 40 ft. / 12 x 12 m
Surface: asphalt
Latitude: 40-10.999833N
Longitude: 077-13.368500W
Elevation: 1115.0 ft.
Traffic pattern: leftleft

Heliport Ownership and Management from official FAA records

Ownership: Privately-owned
Owner: UPMC CARLISLE
361 ALEXANDER SPRING DRIVE
CARLISLE, PA 17015
Phone 717-249-1212
Manager: TIMOTHY RICHWINE
361 ALEXANDER SPRING ROAD
CARLISLE, PA 17015
Phone 717-960-3426

Additional Remarks

FOR CD CTC HARRISBURG APCH AT 800-932-0712.

Instrument Procedures

There are no published instrument procedures at 21PN.

Some nearby airports with instrument procedures:

N94 - Carlisle Airport (2 nm E)
KCXY - Capital City Airport (17 nm E)
W05 - Gettysburg Regional Airport (21 nm S)
KMDT - Harrisburg International Airport (21 nm E)
KTHV - York Airport (23 nm SE)
 
Loc | Ops | Rwys | IFR | FBO | Links
Com | Nav | Svcs | Stats | Notes
Aerial photo
No photo
 
Sectional chart

 
Airport distance calculator
Flying to UPMC Carlisle Heliport? Find the distance to fly.

From to 21PN

Sunrise and sunset
Times for 13-Aug-2020
 Local
(UTC-4)
 Zulu
(UTC)
Morning civil twilight05:5109:51
Sunrise06:2010:20
Sunset20:0700:07
Evening civil twilight20:3600:36

Current date and time
Zulu (UTC)  13-Aug-2020 05:26:38
Local (UTC-4)  13-Aug-2020 01:26:38
 
METAR
KCXY 
17nm E 
130456Z AUTO 00000KT 10SM CLR 26/20 A3007 RMK AO2 SLP181 T02560200 403390233
KMDT 
21nm E 
130456Z 00000KT 10SM FEW100 FEW200 OVC250 25/21 A3007 RMK AO2 SLP180 T02500206 403330233
KTHV 
22nm SE 
130453Z AUTO 00000KT 10SM CLR 23/20 A3008 RMK AO2 SLP183 T02280200 403280211
KMUI 
33nm NE 
130456Z AUTO M 10SM CLR 22/21 A3009 RMK AO2 SLP188 T02220213 403210206 $
TAF
KMDT 
21nm E 
130327Z 1303/1324 08005KT P6SM BKN250 FM131500 09007KT P6SM VCSH BKN050
NOTAMs
Click for the latest NOTAMs
NOTAMs are issued by the DoD/FAA and will open in a separate window not controlled by AirNav.

 

 
 

Would you like to see your business listed on this page?

 If your business provides an interesting product or service to pilots, flight crews, aircraft, or users of the UPMC Carlisle Heliport, you should consider listing it here.  To start the listing process, click on the button below
 
Add a business
 

Other Pages about UPMC Carlisle Heliport

Update a link
 
Copyright © AirNav, LLC. All rights reserved. Privacy Policy  Contact